[[{"header":{"parameterUnit":"m.s-1","parameterCategory":1,"la1":30.2992,"la2":30.254,"lo1":-89.0895,"lo2":-89.0443,"dy":0.0025,"dx":0.0025,"nx":19,"ny":19,"refTime":"2026-05-07T03:00:00:Z","depth":0,"parameterNumber":2,"parameterNumberName":"U-component_of_WINDS"},"data":[0,0,0,4.2137,4.2139,4.2193,4.2194,4.2279,4.228,0,0,0,0,0,0,0,0,0,0,0,4.2129,4.213,4.2137,4.2139,4.2193,4.2194,4.2279,4.228,0,0,0,0,0,0,0,0,0,0,0,4.2128,4.2129,4.2131,4.2139,4.2193,4.2194,4.2279,4.2232,0,0,0,0,0,0,0,0,0,0,4.2177,4.2176,4.2129,4.2131,4.2139,4.2193,4.2194,4.223,4.2235,4.226,0,4.2283,0,4.2283,4.2286,4.2287,0,0,0,4.2133,4.2171,4.2179,4.2131,4.214,4.2193,4.2167,4.2233,4.2239,4.2268,4.2284,4.2287,4.2284,4.2287,4.2287,4.2449,4.245,0,0,4.213,4.2143,4.2175,4.2183,4.2174,4.2166,4.2169,4.2236,4.2256,4.2285,4.2289,4.2286,4.2288,4.2288,4.2448,4.2449,0,0,0,4.2125,4.2141,4.2147,4.218,4.2189,4.2167,4.2171,4.2253,4.2254,4.229,4.2287,4.2288,4.2289,4.2447,4.2448,4.2511,0,0,0,4.2123,4.2138,4.2146,4.2154,4.2188,4.2221,4.2187,4.2249,4.2256,4.2286,4.2288,4.229,4.2446,4.2448,4.2506,4.2538,0,0,0,4.2123,4.2138,4.2148,4.2155,4.2179,4.222,4.2224,4.225,4.2255,4.2287,4.2291,4.2445,4.2447,4.2503,4.2532,4.2585,0,0,0,4.2126,4.2203,4.215,4.2235,4.2178,4.2258,4.2224,4.2282,4.2317,4.2289,4.2446,4.2448,4.2502,4.2528,4.2581,4.2632,4.2654,0,0,4.223,4.2216,4.2265,4.2219,4.2311,4.2248,4.235,4.237,4.2362,4.2421,4.2425,4.2508,4.2531,4.2584,4.2773,4.2791,0,0,0,4.2302,4.2337,4.2359,4.2393,4.241,4.2428,4.2431,4.2439,4.2489,4.2394,4.2541,4.2554,4.2585,4.2608,4.2624,4.2649,4.246,4.2459,4.2459,4.2467,4.2452,4.2533,4.2526,4.256,4.2563,4.259,4.2601,4.2576,4.2612,4.2629,4.2746,4.2774,4.2785,4.2812,4.2654,4.2655,4.2655,4.2655,4.2618,4.2666,4.2633,4.2699,4.2685,4.2741,4.2749,4.273,4.2781,4.2731,4.2757,4.2703,4.2805,4.2828,4.266,4.2659,4.2658,4.2658,4.2658,4.2724,4.2745,4.2753,4.2802,4.2842,4.2833,4.2884,4.2869,4.2855,4.2881,4.2898,4.2897,4.2895,4.289,4.289,4.2891,4.2891,4.2891,4.2892,4.2831,4.2839,4.2883,4.2909,4.293,4.2956,4.2962,4.2983,4.3002,4.2987,4.2987,4.296,4.2817,4.2782,4.2898,4.2897,4.2896,4.2895,4.2895,4.299,4.2952,4.302,4.3041,4.3072,4.3114,4.3094,4.3138,4.3153,4.3179,4.3148,4.3044,4.3029,4.3017,4.2987,4.315,4.315,4.315,4.315,4.3079,4.307,4.3138,4.3173,4.3205,4.3195,4.3276,4.3283,4.3284,4.3293,4.3268,4.3228,4.3216,4.3207,4.3191,4.3164,4.3367,4.3367,4.3367,4.3177,4.317,4.324,4.324,4.3264,4.3286,4.3362,4.3405,4.3399,4.3376,4.33,4.3291,4.3226,4.3205,4.318,4.3155,4.3104,0,0]},{"header":{"parameterUnit":"m.s-1","parameterCategory":1,"la1":30.2992,"la2":30.254,"lo1":-89.0895,"lo2":-89.0443,"dy":0.0025,"dx":0.0025,"nx":19,"ny":19,"refTime":"2026-05-07T03:00:00:Z","depth":0,"parameterNumber":3,"parameterNumberName":"V-component_of_WINDS"},"data":[0,0,0,2.7312,2.7314,2.7432,2.7432,2.7578,2.7579,0,0,0,0,0,0,0,0,0,0,0,2.7272,2.7273,2.7311,2.7314,2.7432,2.7432,2.7578,2.7579,0,0,0,0,0,0,0,0,0,0,0,2.7271,2.7272,2.7273,2.7315,2.7432,2.7433,2.7578,2.7491,0,0,0,0,0,0,0,0,0,0,2.7377,2.7336,2.7272,2.7273,2.7315,2.7432,2.7433,2.7487,2.7496,2.7522,0,2.7542,0,2.7563,2.7589,2.7589,0,0,0,2.7318,2.7328,2.7364,2.7274,2.7316,2.7431,2.738,2.7492,2.7503,2.7534,2.7544,2.755,2.7565,2.7589,2.759,2.7723,2.7724,0,0,2.7311,2.7291,2.7356,2.737,2.735,2.7376,2.7383,2.7499,2.7509,2.7545,2.7553,2.7568,2.759,2.7591,2.7723,2.7724,0,0,0,2.729,2.7286,2.7319,2.7364,2.7386,2.7379,2.7388,2.7504,2.7516,2.7555,2.7569,2.7591,2.7593,2.7723,2.7723,2.7725,0,0,0,2.7286,2.7274,2.7316,2.7305,2.7383,2.7446,2.739,2.7508,2.7522,2.7569,2.7591,2.7594,2.7722,2.7723,2.7724,2.773,0,0,0,2.7266,2.7271,2.7287,2.7304,2.7353,2.7444,2.7464,2.7511,2.753,2.7589,2.7595,2.7722,2.7723,2.7723,2.7728,2.776,0,0,0,2.7238,2.7286,2.7286,2.7346,2.7352,2.7444,2.7463,2.7533,2.7583,2.7592,2.7722,2.7723,2.7723,2.7727,2.7758,2.7783,2.779,0,0,2.7288,2.7292,2.7329,2.7332,2.7418,2.7428,2.7515,2.7582,2.7607,2.7683,2.7687,2.7724,2.7728,2.7759,2.784,2.7846,0,0,0,2.7337,2.7364,2.7391,2.7438,2.7489,2.7535,2.7589,2.7615,2.7681,2.7641,2.7744,2.7747,2.7767,2.7779,2.7784,2.7803,2.7728,2.7728,2.7728,2.7378,2.7407,2.747,2.7514,2.756,2.7616,2.7657,2.77,2.7716,2.774,2.7763,2.7809,2.7823,2.7827,2.7846,2.7778,2.7778,2.7778,2.7778,2.7454,2.7496,2.7517,2.7586,2.7617,2.7676,2.7733,2.7743,2.7804,2.7793,2.7812,2.7799,2.7832,2.7851,2.7778,2.7778,2.7778,2.7778,2.7778,2.7484,2.7509,2.7539,2.761,2.7663,2.7706,2.7763,2.779,2.7815,2.7833,2.7862,2.7862,2.7866,2.7845,2.7845,2.7845,2.7845,2.7845,2.7846,2.7504,2.7537,2.7581,2.7641,2.7675,2.7724,2.7783,2.7818,2.7864,2.7879,2.7879,2.7894,2.783,2.7813,2.7848,2.7848,2.7847,2.7847,2.7847,2.7571,2.756,2.7629,2.7663,2.7737,2.7788,2.7821,2.7891,2.7924,2.7952,2.7963,2.7911,2.7917,2.7913,2.79,2.7955,2.7955,2.7955,2.7955,2.7597,2.7603,2.768,2.7733,2.7789,2.7827,2.7906,2.7952,2.7999,2.8022,2.8018,2.8003,2.7997,2.8007,2.8001,2.799,2.8066,2.8066,2.8066,2.7641,2.7653,2.7714,2.7759,2.7819,2.787,2.7946,2.8008,2.8059,2.8072,2.8041,2.8036,2.8012,2.8002,2.8014,2.8004,2.7983,0,0]}]]